EN

Hourly Weather Dzialoszyn

Today, 25 October, Sunday

Time Temperature Precipitation Wind Pressure Humidity
00:00 +9°C° 0 mm 2 mps 735 mmHg 91%
01:00 +9°C° 0 mm 2 mps 734 mmHg 91%
02:00 +8°C° 0 mm 2 mps 734 mmHg 92%
03:00 +8°C° 0 mm 2 mps 734 mmHg 92%
04:00 +8°C° 0 mm 2 mps 733 mmHg 93%
05:00 +8°C° 0 mm 2 mps 733 mmHg 93%
06:00 +8°C° 0 mm 2 mps 733 mmHg 92%
07:00 +8°C° 0 mm 2 mps 733 mmHg 92%
08:00 +10°C° 0 mm 3 mps 733 mmHg 87%
09:00 +11°C° 0 mm 3 mps 733 mmHg 81%
10:00 +13°C° 0 mm 4 mps 733 mmHg 75%
11:00 +14°C° 0 mm 4 mps 732 mmHg 72%
12:00 +15°C° 0 mm 4 mps 732 mmHg 68%
13:00 +17°C° 0 mm 4 mps 732 mmHg 64%
14:00 +15°C° 0 mm 4 mps 731 mmHg 67%
15:00 +14°C° 0 mm 3 mps 730 mmHg 70%
16:00 +14°C° 0 mm 3 mps 730 mmHg 73%
17:00 +13°C° 0 mm 3 mps 730 mmHg 76%
18:00 +12°C° 0 mm 3 mps 730 mmHg 78%
19:00 +11°C° 0 mm 3 mps 730 mmHg 81%
20:00 +11°C° 0 mm 3 mps 730 mmHg 84%
21:00 +11°C° 0 mm 3 mps 729 mmHg 86%
22:00 +11°C° 0 mm 3 mps 729 mmHg 88%
23:00 +10°C° 0 mm 3 mps 729 mmHg 90%

Tomorrow, 26 October, Monday

Time Temperature Precipitation Wind Pressure Humidity
00:00 +10°C° 0 mm 3 mps 729 mmHg 91%
01:00 +10°C° 0 mm 2 mps 728 mmHg 93%
02:00 +10°C° 0 mm 2 mps 728 mmHg 93%
03:00 +9°C° 0 mm 2 mps 728 mmHg 93%
04:00 +9°C° 0 mm 2 mps 728 mmHg 93%
05:00 +10°C° 0 mm 2 mps 728 mmHg 92%
06:00 +10°C° 0 mm 2 mps 728 mmHg 91%
07:00 +11°C° 0 mm 1 mps 727 mmHg 90%
08:00 +12°C° 0 mm 1 mps 727 mmHg 90%
09:00 +12°C° 0 mm 1 mps 728 mmHg 89%
10:00 +12°C° 0 mm 1 mps 728 mmHg 88%
11:00 +12°C° 0.1 mm 1 mps 728 mmHg 87%
12:00 +13°C° 0.1 mm 1 mps 728 mmHg 87%
13:00 +13°C° 0.1 mm 1 mps 728 mmHg 86%
14:00 +12°C° 0.2 mm 2 mps 727 mmHg 89%
15:00 +10°C° 0.2 mm 2 mps 727 mmHg 92%
16:00 +10°C° 0.2 mm 2 mps 727 mmHg 94%
17:00 +9°C° 0.1 mm 2 mps 728 mmHg 94%
18:00 +10°C° 0.1 mm 1 mps 728 mmHg 95%
19:00 +10°C° 0.1 mm 1 mps 728 mmHg 95%
20:00 +10°C° 0 mm 1 mps 728 mmHg 94%
21:00 +10°C° 0 mm 1 mps 729 mmHg 94%
22:00 +10°C° 0 mm 1 mps 729 mmHg 93%
23:00 +10°C° 0.2 mm 1 mps 729 mmHg 94%

Day after tomorrow, 27 October, Tuesday

Time Temperature Precipitation Wind Pressure Humidity
00:00 +10°C° 0.2 mm 1 mps 729 mmHg 94%
01:00 +10°C° 0.2 mm 1 mps 729 mmHg 95%
02:00 +10°C° 0.7 mm 1 mps 729 mmHg 95%
03:00 +9°C° 0.7 mm 1 mps 729 mmHg 96%
04:00 +9°C° 0.7 mm 1 mps 729 mmHg 96%
05:00 +9°C° 0.7 mm 1 mps 729 mmHg 96%
06:00 +9°C° 0.7 mm 1 mps 729 mmHg 96%
07:00 +8°C° 0.7 mm 2 mps 729 mmHg 96%
08:00 +9°C° 0.7 mm 1 mps 729 mmHg 95%
09:00 +9°C° 0.7 mm 1 mps 729 mmHg 95%
10:00 +9°C° 0.7 mm 1 mps 730 mmHg 95%
11:00 +9°C° 0.8 mm 1 mps 730 mmHg 95%
12:00 +9°C° 0.8 mm 1 mps 730 mmHg 95%
13:00 +9°C° 0.8 mm 1 mps 730 mmHg 95%
14:00 +9°C° 0.3 mm 1 mps 730 mmHg 94%
15:00 +9°C° 0.3 mm 1 mps 730 mmHg 93%
16:00 +9°C° 0.3 mm 1 mps 730 mmHg 92%
17:00 +9°C° 0.1 mm 1 mps 731 mmHg 91%
18:00 +9°C° 0.1 mm 1 mps 731 mmHg 90%
19:00 +7°C° 0.1 mm 2 mps 731 mmHg 89%
20:00 +7°C° 0 mm 2 mps 732 mmHg 90%
21:00 +7°C° 0 mm 2 mps 732 mmHg 91%
22:00 +5°C° 0 mm 3 mps 732 mmHg 91%
23:00 +5°C° 0 mm 3 mps 732 mmHg 91%

28 October, Wednesday

Time Temperature Precipitation Wind Pressure Humidity
00:00 +5°C° 0 mm 3 mps 732 mmHg 91%
01:00 +5°C° 0 mm 3 mps 732 mmHg 91%
02:00 +5°C° 0 mm 4 mps 732 mmHg 91%
03:00 +5°C° 0 mm 4 mps 732 mmHg 90%
04:00 +4°C° 0 mm 4 mps 732 mmHg 89%
05:00 +4°C° 0 mm 4 mps 732 mmHg 88%
06:00 +4°C° 0 mm 4 mps 732 mmHg 87%
07:00 +4°C° 0 mm 4 mps 732 mmHg 86%
08:00 +6°C° 0 mm 5 mps 732 mmHg 81%
09:00 +7°C° 0 mm 5 mps 732 mmHg 75%
10:00 +8°C° 0 mm 5 mps 732 mmHg 70%
11:00 +9°C° 0 mm 6 mps 732 mmHg 68%
12:00 +9°C° 0 mm 6 mps 732 mmHg 65%
13:00 +10°C° 0 mm 7 mps 732 mmHg 63%
14:00 +10°C° 0 mm 6 mps 732 mmHg 66%
15:00 +9°C° 0 mm 5 mps 732 mmHg 69%
16:00 +10°C° 0 mm 4 mps 732 mmHg 71%
17:00 +8°C° 0 mm 4 mps 732 mmHg 74%
18:00 +7°C° 0 mm 4 mps 732 mmHg 77%
19:00 +7°C° 0 mm 4 mps 732 mmHg 79%
20:00 +7°C° 0 mm 4 mps 733 mmHg 80%
21:00 +7°C° 0 mm 4 mps 733 mmHg 81%
22:00 +7°C° 0 mm 4 mps 733 mmHg 81%
23:00 +7°C° 0 mm 4 mps 733 mmHg 82%

29 October, Thursday

Time Temperature Precipitation Wind Pressure Humidity
00:00 +7°C° 0 mm 4 mps 733 mmHg 82%
01:00 +7°C° 0 mm 4 mps 733 mmHg 82%
02:00 +7°C° 0 mm 4 mps 733 mmHg 81%
03:00 +8°C° 0 mm 5 mps 732 mmHg 81%
04:00 +8°C° 0 mm 5 mps 732 mmHg 80%
05:00 +8°C° 0 mm 5 mps 733 mmHg 81%
06:00 +8°C° 0 mm 6 mps 733 mmHg 82%
07:00 +8°C° 0 mm 6 mps 733 mmHg 83%
08:00 +9°C° 0 mm 6 mps 733 mmHg 80%
09:00 +10°C° 0 mm 6 mps 734 mmHg 76%
10:00 +11°C° 0 mm 7 mps 734 mmHg 72%
11:00 +11°C° 0.1 mm 6 mps 735 mmHg 71%
12:00 +11°C° 0.1 mm 6 mps 735 mmHg 70%
13:00 +11°C° 0.1 mm 6 mps 735 mmHg 70%
14:00 +10°C° 0.1 mm 5 mps 735 mmHg 71%
15:00 +11°C° 0.1 mm 4 mps 735 mmHg 73%
16:00 +10°C° 0.1 mm 3 mps 736 mmHg 74%
17:00 +10°C° 0 mm 3 mps 736 mmHg 77%
18:00 +9°C° 0 mm 3 mps 736 mmHg 80%
19:00 +8°C° 0 mm 3 mps 737 mmHg 83%
20:00 +8°C° 0 mm 3 mps 737 mmHg 84%
21:00 +8°C° 0 mm 3 mps 737 mmHg 86%
22:00 +8°C° 0 mm 3 mps 737 mmHg 87%
23:00 +7°C° 0 mm 4 mps 737 mmHg 87%

30 October, Friday

Time Temperature Precipitation Wind Pressure Humidity
00:00 +7°C° 0 mm 4 mps 737 mmHg 86%
01:00 +7°C° 0 mm 4 mps 737 mmHg 86%
02:00 +7°C° 0 mm 4 mps 737 mmHg 86%
03:00 +8°C° 0 mm 4 mps 737 mmHg 85%
04:00 +8°C° 0 mm 5 mps 737 mmHg 84%
05:00 +8°C° 0 mm 4 mps 737 mmHg 85%
06:00 +8°C° 0 mm 4 mps 737 mmHg 86%
07:00 +8°C° 0 mm 4 mps 737 mmHg 87%
08:00 +10°C° 0 mm 4 mps 737 mmHg 84%
09:00 +11°C° 0 mm 4 mps 738 mmHg 82%
10:00 +12°C° 0 mm 4 mps 738 mmHg 80%
11:00 +13°C° 0 mm 5 mps 738 mmHg 78%
12:00 +13°C° 0 mm 5 mps 738 mmHg 75%
13:00 +14°C° 0 mm 5 mps 738 mmHg 72%
14:00 +14°C° 0 mm 5 mps 738 mmHg 73%
15:00 +14°C° 0 mm 5 mps 738 mmHg 75%
16:00 +13°C° 0 mm 5 mps 738 mmHg 76%
17:00 +13°C° 0 mm 4 mps 738 mmHg 78%
18:00 +12°C° 0 mm 4 mps 738 mmHg 79%
19:00 +11°C° 0 mm 4 mps 738 mmHg 81%
20:00 +11°C° 0 mm 3 mps 738 mmHg 82%
21:00 +10°C° 0 mm 3 mps 738 mmHg 83%
22:00 +10°C° 0 mm 3 mps 738 mmHg 84%
23:00 +10°C° 0 mm 3 mps 738 mmHg 85%
Show more